GTI866 ENTC-ENSB

Flight info

Callsign GTI866
Flight time 1h 17m
Altitude 39000
Route LOMVI P600 KOMUX/N0489F410 P600 INPAR
Aircraft B748/H-SDE3FGHIM1M2RWXY/LB1

Departure

Time 2026-05-07 19:06
Airport Tromsø Airport (ENTC)

Arrival

Time 2026-05-07 20:23
Airport Svalbard Airport, Longyear (ENSB)
Time Latitude Longitude Altitude Speed Heading
2026-05-07 17:25 69.68121 18.91021 43 ft 0 kts 282°
2026-05-07 18:56 69.68117 18.91072 42 ft 4 kts 282°
2026-05-07 18:56 69.68111 18.91148 41 ft 4 kts 282°
2026-05-07 18:56 69.68105 18.91222 41 ft 4 kts 283°
2026-05-07 18:56 69.68099 18.91288 42 ft 4 kts 297°
2026-05-07 18:57 69.68091 18.91323 41 ft 4 kts 340°
2026-05-07 18:57 69.68058 18.91318 42 ft 3 kts 13°
2026-05-07 18:57 69.68051 18.91314 41 ft 0 kts 13°
2026-05-07 19:00 69.68059 18.91319 45 ft 5 kts 13°
2026-05-07 19:00 69.68155 18.91381 44 ft 23 kts 13°
2026-05-07 19:00 69.68291 18.91468 38 ft 18 kts 12°
2026-05-07 19:01 69.68413 18.91498 36 ft 20 kts
2026-05-07 19:01 69.68543 18.91556 35 ft 21 kts 13°
2026-05-07 19:01 69.68711 18.91668 30 ft 19 kts 13°
2026-05-07 19:01 69.68774 18.91729 30 ft 4 kts 45°
2026-05-07 19:02 69.68779 18.91874 30 ft 11 kts 107°
2026-05-07 19:02 69.68760 18.92067 30 ft 5 kts 94°
2026-05-07 19:02 69.68771 18.92149 30 ft 5 kts 45°
2026-05-07 19:02 69.68845 18.92233 31 ft 16 kts 13°
2026-05-07 19:03 69.68981 18.92321 33 ft 24 kts 12°
2026-05-07 19:03 69.69157 18.92434 33 ft 17 kts 13°
2026-05-07 19:03 69.69301 18.92522 33 ft 23 kts
2026-05-07 19:03 69.69455 18.92571 31 ft 12 kts 357°
2026-05-07 19:04 69.69523 18.92636 30 ft 15 kts 55°
2026-05-07 19:04 69.69477 18.92723 32 ft 8 kts 202°
2026-05-07 19:04 69.69393 18.92597 33 ft 15 kts 207°
2026-05-07 19:04 69.69331 18.92554 31 ft 8 kts 192°
2026-05-07 19:05 69.69314 18.92544 32 ft 0 kts 192°
2026-05-07 19:05 69.69277 18.92521 33 ft 31 kts 192°
2026-05-07 19:05 69.68687 18.92137 33 ft 138 kts 193°
2026-05-07 19:05 69.67537 18.91385 547 ft 179 kts 193°
2026-05-07 19:06 69.66218 18.90479 1245 ft 219 kts 193°
2026-05-07 19:06 69.63086 18.88408 4299 ft 223 kts 193°
2026-05-07 19:06 69.61603 18.87430 6015 ft 215 kts 193°
2026-05-07 19:07 69.60146 18.86457 7425 ft 217 kts 196°
2026-05-07 19:07 69.58855 18.84416 8628 ft 218 kts 229°
2026-05-07 19:07 69.58148 18.80561 9875 ft 219 kts 260°
2026-05-07 19:07 69.58223 18.76283 10993 ft 221 kts 282°
2026-05-07 19:08 69.58588 18.71916 12102 ft 224 kts 284°
2026-05-07 19:08 69.59224 18.67895 13162 ft 229 kts 309°
2026-05-07 19:08 69.60514 18.65065 14190 ft 238 kts 336°
2026-05-07 19:08 69.62158 18.64297 14954 ft 255 kts
2026-05-07 19:09 69.63906 18.65917 15544 ft 277 kts 25°
2026-05-07 19:09 69.65617 18.68893 16061 ft 297 kts 31°
2026-05-07 19:09 69.67397 18.72256 16540 ft 316 kts 30°
2026-05-07 19:09 69.69343 18.75578 17019 ft 335 kts 27°
2026-05-07 19:10 69.71441 18.78947 17453 ft 354 kts 27°
2026-05-07 19:10 69.73633 18.82571 17848 ft 374 kts 28°
2026-05-07 19:10 69.75932 18.86495 18200 ft 394 kts 28°
2026-05-07 19:10 69.78362 18.90632 18505 ft 413 kts 28°
2026-05-07 19:11 69.80906 18.94785 18867 ft 425 kts 24°
2026-05-07 19:11 69.83713 18.97474 19406 ft 428 kts
2026-05-07 19:11 69.86700 18.98258 19991 ft 431 kts
2026-05-07 19:11 69.89693 18.98496 20608 ft 434 kts 359°
2026-05-07 19:12 69.92733 18.98672 21188 ft 437 kts
2026-05-07 19:12 69.95784 18.98970 21749 ft 440 kts
2026-05-07 19:12 69.98861 18.99330 22265 ft 443 kts
2026-05-07 19:12 70.01938 18.99636 22779 ft 446 kts
2026-05-07 19:13 70.05056 18.99908 23270 ft 449 kts
2026-05-07 19:13 70.08180 18.99637 23718 ft 450 kts 351°
2026-05-07 19:13 70.11180 18.97569 24084 ft 451 kts 342°
2026-05-07 19:13 70.14233 18.94705 24443 ft 454 kts 341°
2026-05-07 19:14 70.17241 18.91802 24785 ft 456 kts 341°
2026-05-07 19:14 70.20264 18.88896 25123 ft 459 kts 341°
2026-05-07 19:14 70.23267 18.86047 25431 ft 461 kts 341°
2026-05-07 19:14 70.26344 18.83116 25770 ft 464 kts 341°
2026-05-07 19:15 70.29462 18.80108 26106 ft 466 kts 341°
2026-05-07 19:15 70.32502 18.77165 26421 ft 469 kts 341°
2026-05-07 19:15 70.35613 18.74157 26764 ft 471 kts 341°
2026-05-07 19:15 70.38733 18.71136 27092 ft 474 kts 341°
2026-05-07 19:16 70.41879 18.68071 27428 ft 477 kts 341°
2026-05-07 19:16 70.45039 18.64979 27794 ft 479 kts 341°
2026-05-07 19:16 70.48217 18.61863 28159 ft 482 kts 341°
2026-05-07 19:16 70.51403 18.58728 28670 ft 482 kts 341°
2026-05-07 19:17 70.54594 18.55581 29240 ft 482 kts 341°
2026-05-07 19:17 70.57774 18.52436 29856 ft 481 kts 341°
2026-05-07 19:17 70.60936 18.49293 30476 ft 480 kts 341°
2026-05-07 19:17 70.64106 18.46131 30995 ft 480 kts 341°
2026-05-07 19:18 70.67288 18.42952 31540 ft 481 kts 341°
2026-05-07 19:18 70.70468 18.39760 32074 ft 483 kts 341°
2026-05-07 19:18 70.73656 18.36549 32686 ft 484 kts 341°
2026-05-07 19:18 70.76855 18.33318 33359 ft 484 kts 341°
2026-05-07 19:19 70.80046 18.30084 34011 ft 485 kts 341°
2026-05-07 19:19 70.83255 18.26820 34582 ft 487 kts 341°
2026-05-07 19:19 70.86471 18.23538 35149 ft 488 kts 341°
2026-05-07 19:19 70.89688 18.20244 35734 ft 489 kts 341°
2026-05-07 19:20 70.92910 18.16933 36323 ft 490 kts 341°
2026-05-07 19:20 70.96148 18.13594 36908 ft 491 kts 341°
2026-05-07 19:20 70.99382 18.10248 37478 ft 492 kts 341°
2026-05-07 19:20 71.02636 18.06872 38033 ft 493 kts 340°
2026-05-07 19:21 71.05846 18.03525 38593 ft 495 kts 341°
2026-05-07 19:21 71.09153 18.00068 39047 ft 496 kts 341°
2026-05-07 19:21 71.12386 17.96677 39476 ft 498 kts 341°
2026-05-07 19:21 71.15669 17.93220 39910 ft 499 kts 341°
2026-05-07 19:22 71.18957 17.89746 40354 ft 499 kts 341°
2026-05-07 19:22 71.22238 17.86266 40805 ft 499 kts 341°
2026-05-07 19:22 71.25516 17.82778 41085 ft 498 kts 341°
2026-05-07 19:22 71.28821 17.79248 41114 ft 500 kts 341°
2026-05-07 19:23 71.35381 17.72204 41104 ft 498 kts 340°
2026-05-07 19:23 71.41915 17.65137 41108 ft 498 kts 341°
2026-05-07 19:24 71.48472 17.57994 41117 ft 499 kts 341°
2026-05-07 19:24 71.55028 17.50801 41116 ft 498 kts 341°
2026-05-07 19:25 71.61572 17.43567 41119 ft 497 kts 341°
2026-05-07 19:25 71.68103 17.36297 41121 ft 497 kts 341°
2026-05-07 19:26 71.74631 17.28975 41122 ft 497 kts 340°
2026-05-07 19:26 71.81158 17.21601 41129 ft 498 kts 340°
2026-05-07 19:27 71.87694 17.14161 41131 ft 498 kts 340°
2026-05-07 19:27 71.94217 17.06684 41138 ft 498 kts 340°
2026-05-07 19:28 72.00799 16.99826 41154 ft 497 kts 351°
2026-05-07 19:28 72.07683 16.97109 41149 ft 498 kts 354°
2026-05-07 19:29 72.14564 16.94543 41162 ft 498 kts 353°
2026-05-07 19:29 72.21449 16.91899 41158 ft 498 kts 353°
2026-05-07 19:30 72.28274 16.89304 41127 ft 497 kts 353°
2026-05-07 19:30 72.31713 16.87968 40783 ft 497 kts 353°
2026-05-07 19:30 72.35147 16.86637 40469 ft 498 kts 353°
2026-05-07 19:31 72.38592 16.85306 40194 ft 496 kts 353°
2026-05-07 19:31 72.42012 16.83976 40168 ft 494 kts 353°
2026-05-07 19:31 72.48876 16.81281 40177 ft 497 kts 353°
2026-05-07 19:32 72.55736 16.78574 40172 ft 497 kts 353°
2026-05-07 19:32 72.62599 16.75841 40172 ft 497 kts 353°
2026-05-07 19:33 72.69461 16.73091 40178 ft 498 kts 353°
2026-05-07 19:33 72.76339 16.70310 40177 ft 497 kts 353°
2026-05-07 19:34 72.83209 16.67512 40184 ft 497 kts 353°
2026-05-07 19:34 72.90076 16.64693 40184 ft 497 kts 353°
2026-05-07 19:35 72.96955 16.61845 40186 ft 497 kts 353°
2026-05-07 19:35 73.03819 16.58984 40190 ft 498 kts 353°
2026-05-07 19:36 73.10692 16.56094 40182 ft 497 kts 353°
2026-05-07 19:36 73.17557 16.53186 40191 ft 498 kts 353°
2026-05-07 19:37 73.24430 16.50251 40191 ft 497 kts 353°
2026-05-07 19:37 73.31291 16.47296 40199 ft 497 kts 353°
2026-05-07 19:38 73.38162 16.44315 40202 ft 497 kts 353°
2026-05-07 19:38 73.45026 16.41310 40215 ft 497 kts 353°
2026-05-07 19:39 73.51845 16.38304 40211 ft 498 kts 353°
2026-05-07 19:39 73.57599 16.35744 40212 ft 497 kts 353°
2026-05-07 19:40 73.65575 16.32172 40220 ft 497 kts 353°
2026-05-07 19:40 73.72438 16.29070 40220 ft 497 kts 353°
2026-05-07 19:41 73.79296 16.25942 40227 ft 497 kts 353°
2026-05-07 19:41 73.86153 16.22791 40229 ft 498 kts 353°
2026-05-07 19:42 73.93016 16.19609 40239 ft 497 kts 353°
2026-05-07 19:42 73.99884 16.16400 40240 ft 498 kts 353°
2026-05-07 19:43 74.06737 16.13169 40250 ft 497 kts 353°
2026-05-07 19:43 74.13607 16.09903 40252 ft 497 kts 353°
2026-05-07 19:44 74.20459 16.06619 40252 ft 497 kts 352°
2026-05-07 19:44 74.27321 16.03300 40248 ft 497 kts 352°
2026-05-07 19:45 74.34178 15.99957 40250 ft 498 kts 353°
2026-05-07 19:45 74.39877 15.97155 40241 ft 495 kts 352°
2026-05-07 19:46 74.46717 15.93766 40250 ft 496 kts 352°
2026-05-07 19:46 74.53542 15.90356 40254 ft 495 kts 352°
2026-05-07 19:47 74.60376 15.86910 40251 ft 495 kts 352°
2026-05-07 19:47 74.67178 15.83451 40259 ft 496 kts 352°
2026-05-07 19:48 74.73995 15.79954 40257 ft 495 kts 352°
2026-05-07 19:48 74.80830 15.76417 40265 ft 496 kts 352°
2026-05-07 19:49 74.87712 15.72823 40262 ft 495 kts 352°
2026-05-07 19:49 74.94541 15.69225 40263 ft 495 kts 352°
2026-05-07 19:50 75.01363 15.65598 40272 ft 495 kts 352°
2026-05-07 19:50 75.08150 15.61957 40278 ft 494 kts 352°
2026-05-07 19:51 75.14970 15.58267 40274 ft 495 kts 352°
2026-05-07 19:51 75.21822 15.54525 40274 ft 494 kts 352°
2026-05-07 19:52 75.28596 15.50789 40287 ft 495 kts 352°
2026-05-07 19:52 75.35403 15.47006 40288 ft 493 kts 352°
2026-05-07 19:53 75.42212 15.43181 40292 ft 494 kts 352°
2026-05-07 19:53 75.49014 15.39331 40299 ft 494 kts 352°
2026-05-07 19:54 75.55809 15.35442 40299 ft 494 kts 352°
2026-05-07 19:54 75.62610 15.31519 40302 ft 495 kts 352°
2026-05-07 19:55 75.69412 15.27552 40307 ft 493 kts 352°
2026-05-07 19:55 75.76147 15.23594 40312 ft 495 kts 352°
2026-05-07 19:56 75.83020 15.19513 40304 ft 493 kts 352°
2026-05-07 19:56 75.89812 15.15443 40312 ft 493 kts 352°
2026-05-07 19:57 75.96597 15.11339 40308 ft 493 kts 352°
2026-05-07 19:57 76.03382 15.07191 40313 ft 493 kts 352°
2026-05-07 19:58 76.10175 15.03004 40314 ft 494 kts 352°
2026-05-07 19:58 76.16969 14.98770 40313 ft 493 kts 352°
2026-05-07 19:59 76.23761 14.94498 40319 ft 494 kts 352°
2026-05-07 19:59 76.30557 14.90183 40316 ft 494 kts 352°
2026-05-07 20:00 76.37348 14.85803 40321 ft 493 kts 352°
2026-05-07 20:00 76.44065 14.81367 40324 ft 494 kts 351°
2026-05-07 20:01 76.50817 14.76897 40323 ft 495 kts 351°
2026-05-07 20:01 76.57617 14.72331 40327 ft 495 kts 351°
2026-05-07 20:02 76.64463 14.67699 40325 ft 495 kts 351°
2026-05-07 20:02 76.71231 14.63066 40331 ft 495 kts 351°
2026-05-07 20:03 76.78040 14.58363 40315 ft 495 kts 351°
2026-05-07 20:03 76.81344 14.56061 40040 ft 493 kts 351°
2026-05-07 20:03 76.84814 14.53631 39734 ft 492 kts 351°
2026-05-07 20:04 76.88198 14.51250 39453 ft 491 kts 351°
2026-05-07 20:04 76.91575 14.48863 39150 ft 491 kts 351°
2026-05-07 20:04 76.94941 14.46471 38793 ft 489 kts 351°
2026-05-07 20:04 76.98284 14.44082 38152 ft 488 kts 351°
2026-05-07 20:05 77.01618 14.41687 37474 ft 486 kts 351°
2026-05-07 20:05 77.04983 14.39258 36794 ft 484 kts 351°
2026-05-07 20:05 77.08295 14.36855 36098 ft 483 kts 351°
2026-05-07 20:05 77.11607 14.34440 35384 ft 483 kts 351°
2026-05-07 20:06 77.14902 14.32025 34488 ft 484 kts 351°
2026-05-07 20:06 77.18259 14.29550 33423 ft 483 kts 351°
2026-05-07 20:06 77.21566 14.27103 32368 ft 482 kts 352°
2026-05-07 20:06 77.24860 14.24658 31366 ft 479 kts 352°
2026-05-07 20:07 77.28142 14.22212 30390 ft 476 kts 352°
2026-05-07 20:07 77.31398 14.19770 29225 ft 472 kts 352°
2026-05-07 20:07 77.34612 14.17345 28103 ft 467 kts 352°
2026-05-07 20:07 77.37804 14.14924 27027 ft 462 kts 352°
2026-05-07 20:08 77.40956 14.12523 25981 ft 457 kts 352°
2026-05-07 20:08 77.44077 14.10134 24978 ft 451 kts 352°
2026-05-07 20:08 77.47144 14.07774 23991 ft 446 kts 352°
2026-05-07 20:08 77.50190 14.05420 22864 ft 440 kts 352°
2026-05-07 20:09 77.53194 14.03087 21754 ft 435 kts 352°
2026-05-07 20:09 77.56147 14.00782 20689 ft 429 kts 352°
2026-05-07 20:09 77.59060 13.98496 19647 ft 423 kts 352°
2026-05-07 20:10 77.64796 13.93966 17514 ft 413 kts 352°
2026-05-07 20:10 77.67621 13.91724 16427 ft 408 kts 352°
2026-05-07 20:10 77.70396 13.89506 15395 ft 403 kts 352°
2026-05-07 20:10 77.73134 13.87306 14366 ft 399 kts 352°
2026-05-07 20:11 77.75825 13.85154 13288 ft 394 kts 353°
2026-05-07 20:11 77.78523 13.84928 12241 ft 387 kts
2026-05-07 20:11 77.81153 13.86952 11396 ft 377 kts 12°
2026-05-07 20:11 77.83679 13.89412 10680 ft 367 kts 12°
2026-05-07 20:12 77.86164 13.91187 10089 ft 356 kts
2026-05-07 20:12 77.88622 13.91959 9472 ft 345 kts
2026-05-07 20:12 77.90976 13.92714 8973 ft 334 kts
2026-05-07 20:12 77.93255 13.93835 8469 ft 325 kts
2026-05-07 20:13 77.95475 13.94988 7982 ft 317 kts
2026-05-07 20:13 77.97646 13.95986 7495 ft 311 kts
2026-05-07 20:13 77.99772 13.96925 7035 ft 306 kts
2026-05-07 20:13 78.01866 13.97889 6716 ft 297 kts
2026-05-07 20:14 78.03898 13.98848 6434 ft 288 kts
2026-05-07 20:14 78.05867 13.99773 6144 ft 281 kts
2026-05-07 20:14 78.07779 14.00666 5905 ft 274 kts
2026-05-07 20:14 78.09653 14.01546 5685 ft 267 kts
2026-05-07 20:15 78.11487 14.02412 5455 ft 262 kts
2026-05-07 20:15 78.13286 14.03265 5234 ft 258 kts
2026-05-07 20:15 78.15046 14.04100 5002 ft 254 kts
2026-05-07 20:15 78.16790 14.04928 4768 ft 251 kts
2026-05-07 20:16 78.18509 14.05748 4625 ft 245 kts
2026-05-07 20:16 78.20192 14.06554 4473 ft 241 kts
2026-05-07 20:16 78.21840 14.07345 4325 ft 237 kts
2026-05-07 20:16 78.23455 14.08188 4177 ft 233 kts 10°
2026-05-07 20:17 78.24916 14.11291 4057 ft 227 kts 32°
2026-05-07 20:17 78.26171 14.15569 3896 ft 219 kts 35°
2026-05-07 20:17 78.27383 14.19804 3805 ft 206 kts 34°
2026-05-07 20:17 78.28548 14.23716 3703 ft 194 kts 33°
2026-05-07 20:18 78.29643 14.27362 3499 ft 188 kts 34°
2026-05-07 20:18 78.30473 14.32125 3274 ft 188 kts 66°
2026-05-07 20:18 78.30562 14.38473 3045 ft 189 kts 99°
2026-05-07 20:18 78.30261 14.44759 3039 ft 191 kts 102°
2026-05-07 20:19 78.29924 14.51072 3030 ft 191 kts 104°
2026-05-07 20:19 78.29575 14.57361 3033 ft 190 kts 104°
2026-05-07 20:19 78.29226 14.63638 3028 ft 190 kts 104°
2026-05-07 20:19 78.28877 14.69915 3027 ft 190 kts 104°
2026-05-07 20:20 78.28530 14.76167 2981 ft 188 kts 104°
2026-05-07 20:20 78.28195 14.82172 2744 ft 179 kts 104°
2026-05-07 20:20 78.27870 14.88015 2518 ft 176 kts 104°
2026-05-07 20:20 78.27552 14.93756 2254 ft 174 kts 105°
2026-05-07 20:21 78.27241 14.99339 2008 ft 171 kts 105°
2026-05-07 20:21 78.26931 15.04898 1724 ft 168 kts 105°
2026-05-07 20:21 78.26623 15.10438 1434 ft 167 kts 105°
2026-05-07 20:21 78.26316 15.15932 1181 ft 166 kts 105°
2026-05-07 20:22 78.26012 15.21390 944 ft 165 kts 105°
2026-05-07 20:22 78.25719 15.26703 721 ft 151 kts 105°
2026-05-07 20:22 78.25454 15.31426 492 ft 143 kts 105°
2026-05-07 20:22 78.25206 15.36174 314 ft 136 kts 103°
2026-05-07 20:23 78.24955 15.40539 150 ft 130 kts 105°
2026-05-07 20:23 78.24736 15.44530 100 ft 104 kts 107°
2026-05-07 20:23 78.24608 15.46777 100 ft 44 kts 105°
2026-05-07 20:23 78.24542 15.47887 99 ft 32 kts 106°
2026-05-07 20:24 78.24482 15.48985 99 ft 26 kts 103°
2026-05-07 20:24 78.24474 15.49370 99 ft 3 kts 69°
2026-05-07 20:24 78.24498 15.49489 100 ft 2 kts 14°
2026-05-07 20:24 78.24555 15.49546 99 ft 8 kts 21°
2026-05-07 20:25 78.24573 15.49637 102 ft 2 kts 67°
2026-05-07 20:25 78.24572 15.49721 101 ft 2 kts 102°
2026-05-07 20:25 78.24559 15.49910 100 ft 7 kts 108°
2026-05-07 20:25 78.24555 15.50100 99 ft 3 kts 73°
2026-05-07 20:26 78.24560 15.50247 100 ft 7 kts 83°
2026-05-07 20:26 78.24561 15.50281 101 ft 0 kts 83°